DW9728 Weather Reports


time (UTC)temp
C
wind
direction
speed
KPH
gust
KPH
rain 1hr
cm
rain 24hr
cm
rain mn
cm
humidity
%
barometer
mb
20260504150154 20 355 1.6 8.0 0.00 0.00 0.00 80 1014.8
20260504140754 18 342 1.6 4.8 0.00 0.00 0.00 82 1015.0
20260504130454 16 350 0.0 1.6 0.00 0.00 0.00 89 1015.1
20260504100454 13 0 0.0 0.0 0.00 0.00 0.00 90 1014.7
20260504081654 15 0 0.0 0.0 0.00 0.00 0.00 87 1015.2
20260504060154 17 13 0.0 3.2 0.00 0.00 0.00 76 1017.2
20260504045854 17 224 0.0 1.6 0.00 0.00 0.00 73 1017.4
20260504043154 18 332 1.6 6.4 0.00 0.00 0.00 70 1017.4
20260504042254 18 354 1.6 9.7 0.00 0.00 0.00 70 1017.4
20260504041354 18 315 0.0 4.8 0.00 0.00 0.00 70 1017.4
20260504040454 18 325 1.6 3.2 0.00 0.00 0.00 70 1017.5
20260504035554 18 296 0.0 4.8 0.00 0.00 0.00 69 1017.5
20260504033754 18 355 1.6 6.4 0.00 0.00 0.00 68 1017.5
20260504031954 18 316 0.0 3.2 0.00 0.00 0.00 67 1017.2
20260504031054 18 310 1.6 6.4 0.00 0.00 0.00 65 1017.3
20260504030154 18 323 1.6 6.4 0.00 0.00 0.00 64 1017.2
20260504025254 18 311 0.0 6.4 0.00 0.00 0.00 64 1017.2
20260504024354 18 312 0.0 3.2 0.00 0.00 0.00 64 1017.1
20260504023454 18 259 0.0 3.2 0.00 0.00 0.00 65 1017.1
20260504021654 17 0 0.0 0.0 0.00 0.00 0.00 72 1017.0
20260504015854 17 0 0.0 0.0 0.00 0.00 0.00 68 1016.8
20260504014954 18 0 0.0 0.0 0.00 0.00 0.00 65 1016.7
20260504014054 19 0 0.0 0.0 0.00 0.00 0.00 63 1016.6
20260504013154 20 0 0.0 0.0 0.00 0.00 0.00 57 1016.6
20260504010454 21 290 0.0 1.6 0.00 0.00 0.00 52 1016.3
20260504004654 22 271 1.6 4.8 0.00 0.00 0.00 50 1016.4
20260504003754 23 270 0.0 6.4 0.00 0.00 0.00 49 1016.4
20260504002854 23 293 1.6 6.4 0.00 0.00 0.00 47 1016.6
20260504001954 23 283 1.6 6.4 0.00 0.00 0.00 46 1016.7
20260504001054 23 306 1.6 8.0 0.00 0.00 0.00 46 1016.9
20260504000154 24 316 3.2 11.3 0.00 0.00 0.00 44 1017.0
20260503235254 25 290 3.2 11.3 0.00 0.00 0.00 43 1017.0
20260503234354 25 306 1.6 9.7 0.00 0.00 0.00 42 1017.0
20260503233454 25 314 3.2 12.9 0.00 0.00 0.00 42 1017.0
20260503232554 25 301 3.2 11.3 0.00 0.00 0.00 41 1017.0
20260503231654 25 315 3.2 11.3 0.00 0.00 0.00 40 1017.0
20260503230753 26 335 3.2 9.7 0.00 0.00 0.00 39 1017.1
20260503224953 26 310 3.2 11.3 0.00 0.00 0.00 41 1017.1
20260503223153 26 332 3.2 14.5 0.00 0.00 0.00 39 1017.3
20260503222254 25 327 3.2 8.0 0.00 0.00 0.00 39 1017.5
20260503221354 26 329 4.8 12.9 0.00 0.00 0.00 39 1017.5
20260503220454 26 307 3.2 11.3 0.00 0.00 0.00 40 1017.7
20260503215554 26 307 3.2 9.7 0.00 0.00 0.00 39 1018.0
20260503214653 26 305 4.8 12.9 0.00 0.00 0.00 37 1018.1
20260503213753 26 295 3.2 14.5 0.00 0.00 0.00 38 1018.1
20260503212854 26 301 3.2 14.5 0.00 0.00 0.00 38 1018.2
20260503211953 26 300 3.2 11.3 0.00 0.00 0.00 37 1018.4
20260503210154 26 303 4.8 19.3 0.00 0.00 0.00 38 1018.8
20260503205254 26 312 3.2 11.3 0.00 0.00 0.00 41 1018.9
20260503204353 26 323 3.2 8.0 0.00 0.00 0.00 38 1019.2
20260503203453 26 326 3.2 12.9 0.00 0.00 0.00 40 1019.4
20260503202554 26 321 3.2 8.0 0.00 0.00 0.00 39 1019.6
20260503201654 26 337 3.2 12.9 0.00 0.00 0.00 38 1019.7
20260503200754 25 300 4.8 12.9 0.00 0.00 0.00 39 1019.7
20260503195854 26 299 4.8 9.7 0.00 0.00 0.00 38 1020.0
20260503194953 26 294 4.8 12.9 0.00 0.00 0.00 36 1020.1
20260503194054 26 319 4.8 11.3 0.00 0.00 0.00 40 1020.3
20260503193153 26 329 4.8 16.1 0.00 0.00 0.00 33 1020.3
20260503192253 26 320 3.2 14.5 0.00 0.00 0.00 38 1020.4
20260503191353 26 325 4.8 12.9 0.00 0.00 0.00 40 1020.7
20260503190454 26 336 4.8 12.9 0.00 0.00 0.00 41 1020.6
20260503185554 25 295 4.8 14.5 0.00 0.00 0.00 43 1020.9
20260503182853 25 317 4.8 14.5 0.00 0.00 0.00 41 1021.3
20260503180153 25 292 4.8 16.1 0.00 0.00 0.00 45 1021.8
20260503175253 25 313 4.8 12.9 0.00 0.00 0.00 45 1022.0
20260503174353 25 303 4.8 11.3 0.00 0.00 0.00 49 1022.1
20260503173453 25 296 3.2 14.5 0.00 0.00 0.00 45 1022.3
20260503171653 25 315 4.8 14.5 0.00 0.00 0.00 45 1022.5
20260503170753 24 287 3.2 12.9 0.00 0.00 0.00 45 1022.6